Simultaneous Nadir Overpasses (SNOs) Predictions

Prediction of SNOs between AQUA and NOAA-19 Satellite Orbit:

Table of predicted SNOs for the next 14.0 days since TLE Epoch: 8/31/2024
Index Date (AQUA) Time (AQUA) Lat,Lon (AQUA) SZA (AQUA ) Date (NOAA-19) Time (NOAA-19) Lat,Lon (NOAA-19) SZA (NOAA-19 ) Distance(km) Time Diff (sec)
1 08/31/2024 08:12:39 -75.66,-123.88 112.84 08/31/2024 08:12:11 -75.67,-123.84 112.82 1.81 28
2 08/31/2024 09:02:02 75.70, 43.66 67.22 08/31/2024 09:03:06 75.72, 43.60 67.25 3.06 64
3 09/02/2024 11:12:18 -75.10,-167.21 112.63 09/02/2024 11:11:13 -75.06,-170.45 112.65 92.98 65
4 09/02/2024 12:01:52 75.69, -1.23 67.98 09/02/2024 12:01:55 75.68, -1.19 67.98 1.41 3
5 09/04/2024 15:01:38 75.63, -45.95 68.70 09/04/2024 15:00:44 75.63, -46.01 68.71 1.66 54
6 09/04/2024 15:51:00 -75.72, 121.45 111.20 09/04/2024 15:51:45 -75.70, 121.47 111.21 1.60 45
7 09/06/2024 18:50:43 -75.65, 76.74 110.47 09/06/2024 18:50:34 -75.66, 76.67 110.46 1.98 9
8 09/06/2024 19:40:12 76.00,-116.67 69.90 09/06/2024 19:41:21 76.00,-114.87 69.90 48.37 69
9 09/08/2024 21:50:24 -75.64, 31.91 109.69 09/08/2024 21:49:22 -75.64, 31.98 109.68 2.08 62
10 09/08/2024 22:39:47 75.70,-160.61 70.39 09/08/2024 22:40:15 75.69,-160.59 70.39 0.84 28
11 09/11/2024 01:39:24 75.63, 154.71 71.13 09/11/2024 01:39:03 75.64, 154.60 71.14 3.13 21
12 09/11/2024 02:28:50 -75.92, -38.49 108.57 09/11/2024 02:30:00 -75.96, -37.08 108.53 38.33 70
13 09/13/2024 04:38:59 75.62, 109.90 71.93 09/13/2024 04:37:50 75.62, 109.90 71.94 0.81 69



Historial Predications of SNOs between AQUA and NOAA-19
